Regional Weather Roundup
Issued by NWS

Home | Current Version | Previous Version | Graphics & Text | Print | Product List | Glossary On
Versions: 1 2 3 4 5 6 7 8 9 10 11 12 13 14 15 16 17 18 19 20 21 22 23 24 25 26 27 28 29 30 31 32 33 34 35 36 37 38 39 40 41 42 43 44 45 46 47 48 49 50
000
ASUS45 KBOU 041307
RWRCO

WEATHER ROUNDUP FOR COLORADO
NATIONAL WEATHER SERVICE DENVER/BOULDER CO
700 AM MDT TUE AUG 04 2015

NOTE: "FAIR" INDICATES FEW OR NO CLOUDS BELOW 12000 FEET WITH NO
SIGNIFICANT WEATHER AND/OR OBSTRUCTIONS TO VISIBILITY.

COZ001>005-013-030-031-041400-
...NORTHWEST COLORADO...

CITY           SKY/WX    TMP DP  RH WIND       PRES   REMARKS
CRAIG          CLEAR     48  45  89 W3        30.21S
HAYDEN         CLOUDY    48  45  87 E6        30.22S VSB 1/4
MEEKER         CLEAR     47  44  90 NE5       30.24R
MOUNT WERNER   NOT AVBL
STEAMBOAT SPGS   N/A     48  48  99 CALM      30.24S VSB<1/4
WALDEN         MOCLDY    52  41  66 S8G21     30.26F
$$

COZ006>008-011-041400-
...WEST CENTRAL VALLEYS...

CITY           SKY/WX    TMP DP  RH WIND       PRES   REMARKS
GRAND JUNCTION CLEAR     58  48  69 E3        30.15R
MONTROSE       CLEAR     57  51  80 SE3       30.23R
EAGLE          PTCLDY    48  45  87 CALM      30.27R
RIFLE          CLEAR     54  52  93 CALM      30.20R
DELTA          RAIN      60  52  72 NE9       30.20R
NUCLA          CLEAR     54  46  76 SE6       30.26R
$$

COZ017>023-064>068-041400-
...SOUTHWEST COLORADO...

CITY           SKY/WX    TMP DP  RH WIND       PRES   REMARKS
DURANGO        CLEAR     52  45  77 CALM      30.27R
CORTEZ         CLEAR     54  51  90 E6        30.23R
PAGOSA SPRINGS PTCLDY    48  43  82 CALM      30.36R
TELLURIDE      PTCLDY    47  43  85 SE6       30.46R
WOLF CREEK PAS NOT AVBL
$$

COZ009-010-012-014-032>034-037-058>063-041400-
...CENTRAL COLORADO...

CITY           SKY/WX    TMP DP  RH WIND       PRES   REMARKS
ASPEN          PTCLDY    48  42  80 S5        30.32R
BUENA VISTA    CLEAR     48  44  86 CALM      30.31R
COPPER MTN     MOCLDY    46  32  57 W12G21    30.54R
BERTHOUD PASS  FAIR      37  28  70 W40G51    30.50R
COTTONWOOD PAS CLEAR     52  37  58 NW8       30.41R
GUNNISON       CLEAR     46  43  87 N5        30.39R
KREMMLING      CLEAR     43  37  81 CALM      30.30R
LEADVILLE      CLEAR     50  35  56 N8        30.41R
MONARCH PASS   CLEAR     37  34  87 W31       30.64S
SALIDA         CLEAR     52  47  82 CALM      30.35R
SUNLIGHT       CLEAR     45  41  87 CALM      30.51R
WILKERSON PASS NOT AVBL
$$

COZ069>075-041400-
...SAN LUIS VALLEY/SANGRE DE CRISTO MOUNTAINS...

CITY           SKY/WX    TMP DP  RH WIND       PRES   REMARKS
ALAMOSA        PTCLDY    45  44  97 CALM      30.33R FOG
LA VETA PASS   CLEAR     45  41  87 MISG      30.45R
SAGUACHE       CLEAR     48  45  87 NW7       30.35R
$$

COZ035-036-038>040-041400-
...NORTHERN COLORADO FRONT RANGE...

CITY           SKY/WX    TMP DP  RH WIND       PRES   REMARKS
DENVER INTL AP PTSUNNY   62  50  64 CALM      30.06R
DMNS CITY PARK   N/A     64  49  58 SE8       30.06R
AURORA         MOCLDY    61  48  61 S8        30.07R
FRONT RANGE AP MOSUNNY   61  46  59 SW8       30.07
ERIE MUNI ARPT CLOUDY    58  53  83 CALM      30.03S
BOULDER MUN AP CLOUDY    61  52  72 CALM      30.04R
CENTENNIAL     MOCLDY    61  47  59 E6        30.08S
BROOMFIELD     MOCLDY    66  45  45 W6        30.07R
FORT COLLINS   PTCLDY    59  54  82 CALM      30.05R
LONGMONT       PTCLDY    61  54  77 CALM      30.05R
$$

COZ041-046-047-076>085-087-088-041400-
...PIKES PEAK/PALMER DIVIDE AND SOUTHERN FOOTHILLS...

CITY           SKY/WX    TMP DP  RH WIND       PRES   REMARKS
COLO. SPRINGS  PTCLDY    59  48  67 S5        30.12S
A. F. ACADEMY  PTCLDY    64  41  42 VRB7      30.14S
ELLICOTT       MOSUNNY  N/A N/A N/A CALM      30.11R
FALCON         PTCLDY    65  42  43 W7        30.18R
FORT CARSON    PTCLDY    58  50  75 NW6       30.09S
LIMON          SUNNY     54  50  86 N3        30.06R
MONUMENT HILL  MOCLDY    59  43  55 SW12      30.18R
TRINIDAD       CLEAR     60  53  77 SW18      30.12F
$$

COZ042>045-048>051-090-091-041400-
...NORTHEAST COLORADO...

CITY           SKY/WX    TMP DP  RH WIND       PRES   REMARKS
GREELEY ARPT   MOSUNNY   57  52  82 CALM      30.04R
AKRON          SUNNY     63  54  72 W9        30.03R
BURLINGTON     SUNNY     65  59  81 SW6       30.00R
WRAY           PTSUNNY   61  54  77 NE3       30.00R
STERLING       SUNNY     59  52  77 N3        30.01R
HOLYOKE        PTSUNNY   61  55  82 CALM      30.01R
FORT MORGAN    SUNNY     59  52  78 CALM      30.03R
$$

COZ086-089-092>099-041400-
...SOUTHEAST COLORADO...

CITY           SKY/WX    TMP DP  RH WIND       PRES   REMARKS
PUEBLO         CLEAR     62  56  80 W3        30.05R
LA JUNTA       SUNNY     63  58  83 S5        30.01F
LAMAR          SUNNY     61  60  97 SW6       30.00R
SPRINGFIELD      N/A     61  57  87 CALM      30.05F
$$


USA.gov is the U.S. government's official web portal to all federal, state and local government web resources and services.